| time (UTC) | temp F | wind direction | speed MPH | gust MPH | rain 1hr in | rain 24hr in | rain mn in | humidity % | barometer mb |
| 20260831080205 | 59 | 267 | 1.0 | 4.0 | 0.00 | 0.42 | 0.01 | 97 | 1004.1 |
| 20260831075705 | 59 | 226 | 1.0 | 4.0 | 0.00 | 0.42 | 0.01 | 97 | 1004.1 |
| 20260831075204 | 58 | 232 | 0.0 | 4.0 | 0.00 | 0.42 | 0.01 | 97 | 1004.0 |
| 20260831073705 | 58 | 271 | 0.0 | 2.0 | 0.00 | 0.43 | 0.01 | 97 | 1004.0 |
| 20260831073205 | 57 | 231 | 0.0 | 2.0 | 0.00 | 0.43 | 0.01 | 97 | 1003.9 |
| 20260831072205 | 57 | 212 | 0.0 | 1.0 | 0.00 | 0.43 | 0.01 | 97 | 1003.8 |
| 20260831071205 | 56 | 245 | 0.0 | 3.0 | 0.00 | 0.43 | 0.01 | 96 | 1003.7 |
| 20260831070705 | 56 | 263 | 0.0 | 3.0 | 0.00 | 0.43 | 0.01 | 96 | 1003.7 |
| 20260831070205 | 56 | 225 | 0.0 | 4.0 | 0.00 | 0.43 | 0.01 | 97 | 1003.7 |
| 20260831064707 | 56 | 232 | 0.0 | 2.0 | 0.00 | 0.43 | 0.01 | 97 | 1003.5 |
| 20260831064205 | 55 | 231 | 0.0 | 2.0 | 0.00 | 0.43 | 0.01 | 96 | 1003.5 |
| 20260831063705 | 55 | 317 | 0.0 | 3.0 | 0.00 | 0.43 | 0.01 | 96 | 1003.4 |
| 20260831061705 | 55 | 222 | 1.0 | 3.0 | 0.00 | 0.43 | 0.01 | 96 | 1003.2 |
| 20260831055705 | 55 | 206 | 1.0 | 3.0 | 0.00 | 0.45 | 0.01 | 96 | 1002.8 |
| 20260831055206 | 55 | 217 | 1.0 | 3.0 | 0.00 | 0.45 | 0.01 | 96 | 1002.8 |
| 20260831054705 | 55 | 208 | 1.0 | 3.0 | 0.00 | 0.47 | 0.01 | 96 | 1002.8 |
| 20260831054208 | 55 | 208 | 1.0 | 3.0 | 0.00 | 0.47 | 0.01 | 96 | 1002.8 |
| 20260831053705 | 55 | 206 | 1.0 | 4.0 | 0.00 | 0.49 | 0.01 | 96 | 1002.7 |
| 20260831053206 | 55 | 206 | 1.0 | 4.0 | 0.00 | 0.49 | 0.01 | 96 | 1002.6 |
| 20260831052705 | 55 | 206 | 0.0 | 5.0 | 0.01 | 0.49 | 0.01 | 96 | 1002.6 |
| 20260831052205 | 55 | 206 | 1.0 | 5.0 | 0.01 | 0.50 | 0.01 | 96 | 1002.6 |
| 20260831051705 | 55 | 221 | 2.0 | 5.0 | 0.01 | 0.50 | 0.01 | 96 | 1002.6 |
| 20260831050730 | 55 | 207 | 3.0 | 5.0 | 0.01 | 0.50 | 0.01 | 96 | 1002.5 |
| 20260831050205 | 55 | 211 | 2.0 | 1.0 | 0.01 | 0.51 | 0.01 | 96 | 1002.4 |
| 20260831045705 | 54 | 207 | 0.0 | 1.0 | 0.01 | 0.51 | 0.01 | 96 | 1002.3 |
| 20260831045205 | 54 | 207 | 0.0 | 1.0 | 0.01 | 0.51 | 0.01 | 96 | 1002.2 |
| 20260831044705 | 54 | 207 | 0.0 | 1.0 | 0.01 | 0.51 | 0.01 | 96 | 1002.2 |
| 20260831044205 | 54 | 246 | 0.0 | 1.0 | 0.01 | 0.51 | 0.01 | 96 | 1002.1 |
| 20260831043706 | 54 | 270 | 0.0 | 1.0 | 0.01 | 0.51 | 0.01 | 96 | 1002.1 |
| 20260831043205 | 55 | 274 | 0.0 | 1.0 | 0.01 | 0.51 | 0.01 | 96 | 1002.1 |
| 20260831042208 | 55 | 276 | 0.0 | 2.0 | 0.00 | 0.50 | 0.00 | 96 | 1002.1 |
| 20260831041705 | 55 | 276 | 0.0 | 2.0 | 0.00 | 0.50 | 0.00 | 96 | 1002.0 |
| 20260831041205 | 55 | 254 | 0.0 | 2.0 | 0.00 | 0.50 | 0.00 | 96 | 1002.1 |
| 20260831040731 | 55 | 232 | 0.0 | 1.0 | 0.00 | 0.50 | 0.00 | 96 | 1002.2 |
| 20260831040206 | 55 | 211 | 0.0 | 1.0 | 0.00 | 0.50 | 0.00 | 96 | 1002.2 |
| 20260831035707 | 55 | 277 | 0.0 | 1.0 | 0.00 | 0.50 | 0.00 | 96 | 1002.2 |
| 20260831035205 | 55 | 277 | 0.0 | 1.0 | 0.00 | 0.50 | 0.00 | 96 | 1002.1 |
| 20260831034705 | 55 | 272 | 0.0 | 1.0 | 0.00 | 0.50 | 0.00 | 96 | 1002.1 |
| 20260831034205 | 55 | 238 | 0.0 | 1.0 | 0.00 | 0.50 | 0.00 | 96 | 1002.1 |
| 20260831033205 | 55 | 238 | 0.0 | 1.0 | 0.00 | 0.50 | 0.00 | 96 | 1002.0 |
| 20260831032720 | 55 | 238 | 0.0 | 1.0 | 0.00 | 0.50 | 0.00 | 96 | 1002.0 |
| 20260831032205 | 55 | 238 | 0.0 | 1.0 | 0.00 | 0.50 | 0.00 | 96 | 1001.9 |
| 20260831031705 | 55 | 238 | 0.0 | 1.0 | 0.00 | 0.50 | 0.00 | 96 | 1001.9 |
| 20260831031205 | 55 | 238 | 0.0 | 1.0 | 0.00 | 0.50 | 0.00 | 96 | 1001.9 |
| 20260831030705 | 55 | 238 | 0.0 | 1.0 | 0.00 | 0.50 | 0.00 | 96 | 1001.8 |
| 20260831030205 | 55 | 238 | 0.0 | 0.0 | 0.00 | 0.50 | 0.00 | 96 | 1001.8 |
| 20260831025705 | 55 | 238 | 0.0 | 0.0 | 0.00 | 0.50 | 0.00 | 96 | 1001.8 |
| 20260831024705 | 55 | 238 | 0.0 | 1.0 | 0.00 | 0.50 | 0.00 | 96 | 1001.8 |
| 20260831024205 | 55 | 238 | 0.0 | 1.0 | 0.00 | 0.50 | 0.00 | 96 | 1001.8 |
| 20260831023705 | 55 | 238 | 0.0 | 1.0 | 0.00 | 0.50 | 0.00 | 96 | 1001.7 |
| 20260831022205 | 56 | 340 | 0.0 | 1.0 | 0.00 | 0.51 | 0.00 | 96 | 1001.7 |
| 20260831021705 | 56 | 340 | 0.0 | 1.0 | 0.00 | 0.51 | 0.00 | 96 | 1001.7 |
| 20260831021207 | 56 | 340 | 0.0 | 1.0 | 0.00 | 0.51 | 0.00 | 96 | 1001.7 |
| 20260831020704 | 56 | 340 | 0.0 | 0.0 | 0.00 | 0.51 | 0.00 | 96 | 1001.7 |
| 20260831015705 | 56 | 340 | 0.0 | 1.0 | 0.00 | 0.51 | 0.00 | 96 | 1001.7 |
| 20260831015206 | 56 | 340 | 0.0 | 1.0 | 0.00 | 0.51 | 0.00 | 96 | 1001.7 |
| 20260831014705 | 56 | 340 | 0.0 | 2.0 | 0.00 | 0.51 | 0.00 | 96 | 1001.7 |
| 20260831014205 | 56 | 340 | 0.0 | 2.0 | 0.00 | 0.51 | 0.00 | 96 | 1001.7 |
| 20260831013205 | 56 | 340 | 0.0 | 4.0 | 0.00 | 0.51 | 0.00 | 96 | 1001.7 |
| 20260831012707 | 56 | 340 | 1.0 | 4.0 | 0.00 | 0.51 | 0.00 | 96 | 1001.7 |
| 20260831012205 | 56 | 340 | 1.0 | 4.0 | 0.00 | 0.51 | 0.00 | 96 | 1001.7 |
| 20260831010708 | 56 | 296 | 1.0 | 3.0 | 0.00 | 0.51 | 0.00 | 96 | 1001.7 |
| 20260831010205 | 56 | 296 | 1.0 | 1.0 | 0.00 | 0.51 | 0.00 | 96 | 1001.7 |
| 20260831005705 | 56 | 296 | 0.0 | 1.0 | 0.00 | 0.51 | 0.00 | 96 | 1001.7 |
| 20260831005205 | 56 | 296 | 0.0 | 1.0 | 0.00 | 0.51 | 0.00 | 96 | 1001.7 |
| 20260831004705 | 56 | 296 | 0.0 | 1.0 | 0.00 | 0.51 | 0.00 | 96 | 1001.7 |
| 20260831004205 | 56 | 296 | 0.0 | 1.0 | 0.00 | 0.51 | 0.00 | 96 | 1001.7 |
| 20260831003705 | 56 | 296 | 0.0 | 2.0 | 0.00 | 0.51 | 0.00 | 96 | 1001.6 |
| 20260831002704 | 56 | 296 | 0.0 | 2.0 | 0.00 | 0.51 | 0.00 | 96 | 1001.6 |
| 20260831002208 | 56 | 296 | 0.0 | 2.0 | 0.00 | 0.51 | 0.00 | 96 | 1001.7 |
| 20260831001705 | 56 | 296 | 0.0 | 2.0 | 0.00 | 0.51 | 0.00 | 96 | 1001.7 |
| 20260831001205 | 56 | 296 | 0.0 | 0.0 | 0.00 | 0.51 | 0.00 | 96 | 1001.7 |
| 20260831000704 | 56 | 296 | 0.0 | 2.0 | 0.00 | 0.51 | 0.00 | 95 | 1001.6 |
| 20260831000205 | 56 | 296 | 0.0 | 2.0 | 0.00 | 0.51 | 0.00 | 96 | 1001.5 |
| 20260830235205 | 57 | 296 | 0.0 | 2.0 | 0.00 | 0.52 | 0.00 | 96 | 1001.5 |
| 20260830234706 | 57 | 296 | 0.0 | 2.0 | 0.00 | 0.53 | 0.00 | 96 | 1001.5 |
| 20260830234205 | 57 | 296 | 0.0 | 2.0 | 0.00 | 0.53 | 0.00 | 96 | 1001.5 |
| 20260830233705 | 57 | 296 | 0.0 | 2.0 | 0.00 | 0.53 | 0.00 | 96 | 1001.5 |
| 20260830233205 | 57 | 296 | 0.0 | 1.0 | 0.00 | 0.53 | 0.00 | 96 | 1001.5 |
| 20260830232705 | 57 | 296 | 0.0 | 1.0 | 0.00 | 0.53 | 0.00 | 96 | 1001.5 |
| 20260830232206 | 57 | 296 | 0.0 | 1.0 | 0.00 | 0.53 | 0.00 | 96 | 1001.5 |
| 20260830231705 | 57 | 286 | 0.0 | 2.0 | 0.00 | 0.53 | 0.00 | 96 | 1001.6 |
| 20260830231205 | 57 | 286 | 0.0 | 2.0 | 0.00 | 0.53 | 0.00 | 96 | 1001.6 |
| 20260830230205 | 57 | 287 | 0.0 | 1.0 | 0.00 | 0.53 | 0.53 | 96 | 1001.6 |
| 20260830225708 | 57 | 76 | 0.0 | 1.0 | 0.00 | 0.53 | 0.53 | 96 | 1001.7 |
| 20260830225205 | 57 | 76 | 0.0 | 1.0 | 0.00 | 0.53 | 0.53 | 95 | 1001.7 |
| 20260830224705 | 57 | 76 | 0.0 | 0.0 | 0.00 | 0.53 | 0.53 | 95 | 1001.8 |
| 20260830224211 | 57 | 76 | 0.0 | 0.0 | 0.00 | 0.53 | 0.53 | 95 | 1001.8 |
| 20260830223705 | 57 | 76 | 0.0 | 0.0 | 0.00 | 0.53 | 0.53 | 96 | 1001.7 |
| 20260830223205 | 57 | 76 | 0.0 | 0.0 | 0.00 | 0.53 | 0.53 | 96 | 1001.7 |
| 20260830222706 | 57 | 76 | 0.0 | 0.0 | 0.00 | 0.53 | 0.53 | 96 | 1001.7 |
| 20260830222206 | 57 | 76 | 0.0 | 0.0 | 0.00 | 0.53 | 0.53 | 96 | 1001.7 |
| 20260830221205 | 57 | 76 | 0.0 | 0.0 | 0.00 | 0.53 | 0.53 | 95 | 1001.9 |
| 20260830220705 | 58 | 76 | 0.0 | 1.0 | 0.00 | 0.53 | 0.53 | 95 | 1001.9 |
| 20260830220205 | 58 | 76 | 0.0 | 1.0 | 0.00 | 0.53 | 0.53 | 95 | 1001.9 |
| 20260830215219 | 58 | 76 | 0.0 | 1.0 | 0.00 | 0.53 | 0.53 | 95 | 1001.9 |
| 20260830214705 | 58 | 76 | 0.0 | 1.0 | 0.00 | 0.53 | 0.53 | 95 | 1001.8 |
| 20260830214204 | 58 | 76 | 0.0 | 1.0 | 0.00 | 0.53 | 0.53 | 96 | 1001.8 |
| 20260830213706 | 58 | 76 | 0.0 | 0.0 | 0.00 | 0.53 | 0.53 | 95 | 1001.8 |
| 20260830212705 | 58 | 76 | 0.0 | 3.0 | 0.00 | 0.53 | 0.53 | 95 | 1001.7 |
| 20260830211705 | 58 | 76 | 0.0 | 3.0 | 0.00 | 0.53 | 0.53 | 95 | 1001.7 |
| 20260830211205 | 58 | 76 | 1.0 | 3.0 | 0.00 | 0.53 | 0.53 | 95 | 1001.7 |
| 20260830210705 | 58 | 76 | 1.0 | 1.0 | 0.00 | 0.53 | 0.53 | 95 | 1001.7 |
| 20260830210205 | 58 | 76 | 0.0 | 1.0 | 0.00 | 0.53 | 0.53 | 95 | 1001.8 |
| 20260830205705 | 58 | 26 | 0.0 | 1.0 | 0.00 | 0.53 | 0.53 | 95 | 1001.7 |
| 20260830205206 | 58 | 26 | 1.0 | 1.0 | 0.00 | 0.53 | 0.53 | 95 | 1001.8 |
| 20260830204705 | 58 | 26 | 0.0 | 1.0 | 0.00 | 0.53 | 0.53 | 95 | 1001.9 |
| 20260830204206 | 58 | 26 | 0.0 | 1.0 | 0.00 | 0.53 | 0.53 | 95 | 1001.9 |
| 20260830203705 | 58 | 26 | 0.0 | 2.0 | 0.00 | 0.53 | 0.53 | 95 | 1001.8 |
| 20260830203205 | 58 | 26 | 0.0 | 2.0 | 0.00 | 0.53 | 0.53 | 95 | 1001.8 |
| 20260830202204 | 58 | 26 | 0.0 | 2.0 | 0.00 | 0.53 | 0.53 | 95 | 1001.7 |
| 20260830201705 | 58 | 26 | 0.0 | 2.0 | 0.00 | 0.53 | 0.53 | 95 | 1001.8 |
| 20260830201234 | 58 | 26 | 0.0 | 2.0 | 0.00 | 0.53 | 0.53 | 95 | 1001.8 |
| 20260830200705 | 58 | 26 | 0.0 | 2.0 | 0.00 | 0.53 | 0.53 | 95 | 1001.9 |
| 20260830200205 | 58 | 26 | 1.0 | 3.0 | 0.00 | 0.53 | 0.53 | 95 | 1001.9 |
| 20260830195205 | 58 | 26 | 0.0 | 3.0 | 0.00 | 0.53 | 0.53 | 95 | 1001.9 |
| 20260830194705 | 58 | 26 | 1.0 | 3.0 | 0.00 | 0.53 | 0.53 | 95 | 1001.9 |
| 20260830194205 | 58 | 26 | 1.0 | 3.0 | 0.00 | 0.53 | 0.53 | 95 | 1001.9 |
| 20260830193705 | 58 | 17 | 1.0 | 2.0 | 0.00 | 0.53 | 0.53 | 95 | 1001.9 |
| 20260830193205 | 58 | 17 | 1.0 | 2.0 | 0.00 | 0.53 | 0.53 | 95 | 1001.9 |
| 20260830192206 | 58 | 15 | 0.0 | 2.0 | 0.00 | 0.53 | 0.53 | 95 | 1001.9 |
| 20260830191705 | 58 | 9 | 1.0 | 2.0 | 0.00 | 0.53 | 0.53 | 95 | 1001.9 |
| 20260830191205 | 58 | 9 | 1.0 | 4.0 | 0.00 | 0.53 | 0.53 | 95 | 1002.0 |
| 20260830190705 | 58 | 107 | 0.0 | 4.0 | 0.00 | 0.53 | 0.53 | 95 | 1001.9 |
| 20260830190205 | 59 | 107 | 1.0 | 4.0 | 0.00 | 0.53 | 0.53 | 95 | 1001.9 |
| 20260830185705 | 59 | 107 | 2.0 | 4.0 | 0.00 | 0.53 | 0.53 | 95 | 1001.9 |
| 20260830185205 | 59 | 107 | 2.0 | 4.0 | 0.00 | 0.53 | 0.53 | 95 | 1002.0 |
| 20260830184705 | 59 | 101 | 2.0 | 6.0 | 0.00 | 0.53 | 0.53 | 95 | 1002.0 |
| 20260830184205 | 59 | 111 | 3.0 | 6.0 | 0.00 | 0.53 | 0.53 | 95 | 1002.0 |
| 20260830183705 | 59 | 96 | 3.0 | 8.0 | 0.00 | 0.53 | 0.53 | 95 | 1002.0 |
| 20260830183206 | 59 | 97 | 3.0 | 7.0 | 0.00 | 0.53 | 0.53 | 95 | 1002.0 |
| 20260830181704 | 59 | 88 | 3.0 | 6.0 | 0.01 | 0.53 | 0.53 | 94 | 1002.0 |
| 20260830181205 | 59 | 73 | 1.0 | 4.0 | 0.02 | 0.53 | 0.53 | 94 | 1002.1 |
| 20260830180705 | 59 | 79 | 1.0 | 3.0 | 0.02 | 0.53 | 0.53 | 95 | 1002.1 |
| 20260830180205 | 59 | 79 | 1.0 | 4.0 | 0.02 | 0.53 | 0.53 | 95 | 1002.1 |
| 20260830175706 | 59 | 79 | 2.0 | 4.0 | 0.02 | 0.53 | 0.53 | 95 | 1002.2 |
| 20260830175205 | 59 | 79 | 2.0 | 4.0 | 0.02 | 0.53 | 0.53 | 94 | 1002.1 |
| 20260830174705 | 59 | 79 | 1.0 | 4.0 | 0.06 | 0.53 | 0.53 | 94 | 1002.2 |
| 20260830174204 | 59 | 74 | 1.0 | 4.0 | 0.06 | 0.53 | 0.53 | 94 | 1002.2 |
| 20260830173705 | 59 | 78 | 2.0 | 7.0 | 0.16 | 0.53 | 0.53 | 94 | 1002.3 |
| 20260830173205 | 59 | 69 | 2.0 | 8.0 | 0.21 | 0.53 | 0.53 | 94 | 1002.4 |
| 20260830172705 | 59 | 80 | 3.0 | 8.0 | 0.20 | 0.52 | 0.53 | 94 | 1002.4 |
| 20260830172205 | 59 | 97 | 4.0 | 8.0 | 0.20 | 0.52 | 0.50 | 94 | 1002.4 |
| 20260830171705 | 59 | 80 | 4.0 | 8.0 | 0.19 | 0.50 | 0.50 | 94 | 1002.5 |
| 20260830171205 | 59 | 107 | 4.0 | 8.0 | 0.19 | 0.50 | 0.50 | 94 | 1002.5 |
| 20260830170705 | 59 | 119 | 4.0 | 8.0 | 0.19 | 0.50 | 0.50 | 94 | 1002.6 |
| 20260830170205 | 59 | 104 | 3.0 | 8.0 | 0.19 | 0.50 | 0.50 | 93 | 1002.5 |
| 20260830165705 | 59 | 71 | 3.0 | 8.0 | 0.19 | 0.50 | 0.50 | 93 | 1002.5 |
| 20260830165205 | 59 | 91 | 4.0 | 8.0 | 0.19 | 0.50 | 0.50 | 93 | 1002.6 |
| 20260830164705 | 60 | 97 | 3.0 | 8.0 | 0.14 | 0.46 | 0.49 | 93 | 1002.7 |
| 20260830163705 | 60 | 143 | 4.0 | 8.0 | 0.04 | 0.35 | 0.35 | 93 | 1002.7 |
| 20260830163205 | 60 | 97 | 4.0 | 9.0 | 0.01 | 0.31 | 0.31 | 93 | 1002.6 |
| 20260830162704 | 60 | 90 | 4.0 | 9.0 | 0.00 | 0.31 | 0.31 | 93 | 1002.5 |
| 20260830162206 | 60 | 90 | 4.0 | 9.0 | 0.00 | 0.31 | 0.31 | 93 | 1002.5 |
| 20260830161705 | 60 | 47 | 5.0 | 9.0 | 0.00 | 0.31 | 0.31 | 93 | 1002.5 |
| 20260830161205 | 60 | 125 | 5.0 | 10.0 | 0.00 | 0.31 | 0.31 | 93 | 1002.4 |
| 20260830160705 | 60 | 85 | 5.0 | 11.0 | 0.00 | 0.31 | 0.31 | 93 | 1002.4 |
| 20260830160204 | 60 | 61 | 6.0 | 11.0 | 0.00 | 0.31 | 0.31 | 93 | 1002.3 |
| 20260830155705 | 60 | 55 | 6.0 | 11.0 | 0.00 | 0.31 | 0.31 | 93 | 1002.2 |
| 20260830155204 | 60 | 90 | 5.0 | 11.0 | 0.00 | 0.31 | 0.31 | 93 | 1002.3 |
| 20260830154205 | 60 | 61 | 5.0 | 10.0 | 0.00 | 0.31 | 0.31 | 93 | 1002.2 |
| 20260830153705 | 60 | 73 | 6.0 | 10.0 | 0.00 | 0.31 | 0.31 | 93 | 1002.3 |
| 20260830153205 | 61 | 88 | 5.0 | 10.0 | 0.00 | 0.31 | 0.31 | 93 | 1002.4 |
| 20260830152705 | 61 | 88 | 6.0 | 10.0 | 0.00 | 0.31 | 0.31 | 93 | 1002.4 |
| 20260830152206 | 61 | 80 | 6.0 | 10.0 | 0.00 | 0.31 | 0.31 | 93 | 1002.4 |
| 20260830151204 | 61 | 48 | 5.0 | 9.0 | 0.00 | 0.31 | 0.31 | 94 | 1002.4 |
| 20260830150205 | 61 | 78 | 6.0 | 10.0 | 0.00 | 0.31 | 0.31 | 94 | 1002.5 |
| 20260830145705 | 61 | 80 | 6.0 | 10.0 | 0.00 | 0.31 | 0.31 | 94 | 1002.5 |
| 20260830145206 | 61 | 77 | 5.0 | 10.0 | 0.00 | 0.31 | 0.31 | 94 | 1002.5 |
| 20260830144705 | 61 | 51 | 4.0 | 9.0 | 0.00 | 0.31 | 0.31 | 94 | 1002.6 |
| 20260830144205 | 61 | 66 | 5.0 | 9.0 | 0.00 | 0.31 | 0.31 | 94 | 1002.6 |
| 20260830143708 | 61 | 67 | 5.0 | 9.0 | 0.00 | 0.31 | 0.31 | 95 | 1002.7 |
| 20260830143205 | 61 | 55 | 5.0 | 9.0 | 0.00 | 0.31 | 0.31 | 95 | 1002.7 |
| 20260830142706 | 61 | 57 | 5.0 | 9.0 | 0.00 | 0.31 | 0.31 | 95 | 1002.7 |
| 20260830142205 | 61 | 73 | 5.0 | 9.0 | 0.00 | 0.31 | 0.31 | 95 | 1002.8 |
| 20260830141705 | 61 | 60 | 4.0 | 8.0 | 0.00 | 0.31 | 0.31 | 95 | 1002.8 |
| 20260830141220 | 61 | 93 | 4.0 | 8.0 | 0.00 | 0.31 | 0.31 | 95 | 1002.8 |
| 20260830140705 | 61 | 52 | 3.0 | 6.0 | 0.00 | 0.31 | 0.31 | 96 | 1002.8 |
| 20260830140205 | 61 | 47 | 3.0 | 6.0 | 0.00 | 0.31 | 0.31 | 96 | 1002.8 |
| 20260830135708 | 61 | 46 | 3.0 | 6.0 | 0.00 | 0.31 | 0.31 | 96 | 1002.7 |
| 20260830134707 | 61 | 66 | 3.0 | 5.0 | 0.00 | 0.31 | 0.31 | 96 | 1002.9 |
| 20260830133705 | 60 | 49 | 3.0 | 6.0 | 0.00 | 0.31 | 0.31 | 96 | 1002.9 |
| 20260830133208 | 60 | 30 | 2.0 | 6.0 | 0.00 | 0.31 | 0.31 | 96 | 1003.1 |
| 20260830132706 | 60 | 13 | 2.0 | 8.0 | 0.00 | 0.31 | 0.31 | 96 | 1003.0 |
| 20260830131727 | 60 | 30 | 4.0 | 8.0 | 0.01 | 0.31 | 0.31 | 96 | 1003.1 |
| 20260830130706 | 59 | 42 | 4.0 | 9.0 | 0.01 | 0.31 | 0.31 | 96 | 1003.2 |
| 20260830130205 | 59 | 36 | 4.0 | 9.0 | 0.01 | 0.31 | 0.31 | 96 | 1003.2 |
| 20260830125210 | 59 | 46 | 5.0 | 9.0 | 0.03 | 0.31 | 0.31 | 96 | 1003.2 |
| 20260830124706 | 59 | 61 | 4.0 | 8.0 | 0.06 | 0.31 | 0.31 | 96 | 1003.3 |
| 20260830124205 | 59 | 72 | 3.0 | 8.0 | 0.06 | 0.31 | 0.31 | 96 | 1003.3 |
| 20260830123707 | 59 | 67 | 4.0 | 8.0 | 0.09 | 0.31 | 0.31 | 96 | 1003.3 |
| 20260830122705 | 59 | 115 | 3.0 | 6.0 | 0.11 | 0.31 | 0.31 | 96 | 1003.4 |
| 20260830121708 | 58 | 96 | 2.0 | 5.0 | 0.11 | 0.31 | 0.31 | 96 | 1003.4 |
| 20260830121220 | 58 | 115 | 2.0 | 5.0 | 0.11 | 0.31 | 0.31 | 96 | 1003.4 |
| 20260830120708 | 58 | 76 | 2.0 | 8.0 | 0.12 | 0.31 | 0.31 | 96 | 1003.4 |
| 20260830120236 | 58 | 76 | 1.0 | 8.0 | 0.12 | 0.31 | 0.30 | 96 | 1003.3 |
| 20260830115705 | 58 | 130 | 2.0 | 9.0 | 0.11 | 0.28 | 0.30 | 96 | 1003.4 |
| 20260830115208 | 58 | 121 | 3.0 | 9.0 | 0.11 | 0.28 | 0.28 | 96 | 1003.4 |
| 20260830114204 | 58 | 82 | 5.0 | 10.0 | 0.09 | 0.24 | 0.24 | 96 | 1003.4 |
| 20260830113728 | 58 | 71 | 5.0 | 9.0 | 0.08 | 0.20 | 0.24 | 96 | 1003.5 |
| 20260830112206 | 58 | 108 | 4.0 | 9.0 | 0.06 | 0.20 | 0.20 | 96 | 1003.4 |
| 20260830111706 | 58 | 111 | 5.0 | 9.0 | 0.06 | 0.20 | 0.20 | 96 | 1003.4 |
| 20260830111205 | 58 | 73 | 4.0 | 9.0 | 0.06 | 0.19 | 0.20 | 96 | 1003.4 |
| 20260830110708 | 58 | 105 | 4.0 | 9.0 | 0.06 | 0.19 | 0.19 | 96 | 1003.4 |
| 20260830110205 | 58 | 101 | 4.0 | 9.0 | 0.04 | 0.17 | 0.19 | 96 | 1003.5 |
| 20260830105708 | 58 | 128 | 4.0 | 9.0 | 0.04 | 0.17 | 0.17 | 96 | 1003.5 |
| 20260830105205 | 58 | 105 | 4.0 | 9.0 | 0.04 | 0.17 | 0.17 | 96 | 1003.5 |
| 20260830104707 | 58 | 101 | 4.0 | 7.0 | 0.02 | 0.15 | 0.17 | 96 | 1003.5 |
| 20260830104205 | 58 | 119 | 4.0 | 7.0 | 0.02 | 0.15 | 0.15 | 96 | 1003.5 |
| 20260830103215 | 58 | 117 | 4.0 | 9.0 | 0.01 | 0.13 | 0.13 | 96 | 1003.6 |
| 20260830102706 | 58 | 118 | 4.0 | 10.0 | 0.01 | 0.13 | 0.13 | 96 | 1003.6 |
| 20260830101714 | 58 | 103 | 5.0 | 10.0 | 0.01 | 0.13 | 0.13 | 96 | 1003.6 |
| 20260830101205 | 58 | 112 | 5.0 | 10.0 | 0.01 | 0.13 | 0.13 | 96 | 1003.6 |
| 20260830100705 | 58 | 80 | 5.0 | 10.0 | 0.01 | 0.13 | 0.13 | 96 | 1003.6 |
| 20260830100205 | 58 | 98 | 5.0 | 11.0 | 0.01 | 0.13 | 0.13 | 96 | 1003.7 |
| 20260830095705 | 58 | 109 | 5.0 | 11.0 | 0.01 | 0.13 | 0.13 | 96 | 1003.7 |
| 20260830095205 | 58 | 90 | 6.0 | 11.0 | 0.01 | 0.13 | 0.13 | 96 | 1003.8 |
| 20260830094705 | 57 | 98 | 7.0 | 11.0 | 0.00 | 0.13 | 0.13 | 96 | 1003.7 |
| 20260830093708 | 57 | 99 | 6.0 | 11.0 | 0.00 | 0.13 | 0.13 | 96 | 1003.7 |
| 20260830093205 | 57 | 88 | 6.0 | 11.0 | 0.00 | 0.13 | 0.13 | 96 | 1003.7 |
| 20260830092205 | 57 | 111 | 5.0 | 11.0 | 0.00 | 0.13 | 0.13 | 96 | 1003.7 |
| 20260830091704 | 57 | 101 | 5.0 | 11.0 | 0.00 | 0.13 | 0.13 | 96 | 1003.8 |
| 20260830090705 | 57 | 100 | 6.0 | 11.0 | 0.00 | 0.13 | 0.13 | 96 | 1003.8 |
| 20260830090205 | 57 | 103 | 5.0 | 11.0 | 0.01 | 0.13 | 0.13 | 96 | 1003.8 |
| 20260830085705 | 57 | 87 | 5.0 | 11.0 | 0.01 | 0.13 | 0.13 | 96 | 1003.8 |
| 20260830085205 | 57 | 113 | 5.0 | 11.0 | 0.01 | 0.13 | 0.13 | 96 | 1003.8 |
| 20260830084205 | 57 | 83 | 5.0 | 8.0 | 0.01 | 0.13 | 0.13 | 96 | 1003.8 |
| 20260830083705 | 57 | 88 | 4.0 | 10.0 | 0.02 | 0.13 | 0.13 | 96 | 1003.8 |
| 20260830083205 | 57 | 96 | 4.0 | 10.0 | 0.02 | 0.13 | 0.13 | 96 | 1003.8 |
| 20260830082706 | 57 | 90 | 5.0 | 10.0 | 0.02 | 0.13 | 0.13 | 96 | 1003.8 |
| 20260830081705 | 57 | 89 | 4.0 | 10.0 | 0.02 | 0.13 | 0.13 | 96 | 1003.8 |
| 20260830081205 | 57 | 60 | 6.0 | 9.0 | 0.02 | 0.13 | 0.13 | 96 | 1003.7 |